#timestamp,LO_Frequency,Hit,StdDev 
1518793215.1,286046999.8,N
1518793235.9,286047000.4,N
1518793255.7,286047000.4,N
1518793275.5,286046999.9,N
1518793295.4,286047000.0,N
1518793315.2,286047000.2,N
1518793335.0,286047001.6,N
1518793335.9,286047001.6,N
1518793355.8,286047001.4,N
1518793375.6,286047002.4,N
1518793395.5,286047000.0,N
1518793415.3,286047002.2,N
1518793435.1,286047002.5,N
1518793455.9,286047002.2,N
1518793475.7,286047002.7,N
1518793495.6,286047002.5,N
1518793515.4,286047002.6,N
1518793535.2,286047001.3,N
1518793555.1,286047004.2,Y
1518793556.0,286047004.2,P
1518793575.8,286047001.5,N
1518793595.6,286047002.4,N
1518793615.5,286047000.9,N
1518793635.3,286047002.3,N
1518793655.2,286047001.2,N
1518793675.9,286047000.3,N
1518793695.7,286047001.0,N
1518793715.6,286046998.5,N
1518793735.4,286046998.8,N
1518793755.2,286046998.5,N
1518793775.1,286046998.4,N
1518793776.0,286046998.4,N
1518793795.8,286047000.7,N
1518793815.7,286047000.3,N
1518793835.5,286047002.2,N
1518793855.3,286047000.1,N
1518793875.2,286046999.7,N
1518793895.0,286047000.9,N
1518793895.9,286047000.9,N
1518793915.8,286047002.4,N
1518793935.6,286046998.1,N
1518793955.4,286046998.3,N
1518793975.3,286046998.5,N
1518793995.1,286046998.3,N
1518794015.8,286046998.1,N
1518794035.7,286046998.3,N
1518794055.5,286046998.2,N
1518794075.4,286046998.4,N
1518794095.2,286046998.6,N
1518794115.0,286047000.6,N
1518794115.9,286047000.6,N
1518794135.8,286047000.0,N
1518794155.6,286047000.7,N
1518794175.5,286047000.8,N
1518794195.3,286047001.2,N
1518794215.1,286047000.4,N
1518794235.9,286046999.9,N
1518794255.7,286047000.5,N
1518794275.6,286047000.6,N
1518794295.4,286047000.4,N
1518794315.2,286047000.5,N
1518794335.1,286047001.2,N
1518794336.0,286047001.2,N
1518794355.8,286047000.7,N
1518794375.7,286047001.2,N
1518794395.5,286047000.7,N
1518794415.3,286047000.0,N
1518794435.2,286047000.4,N
1518794455.0,286047000.4,N
1518794455.9,286047000.4,N
1518794475.8,286047001.0,N
1518794495.6,286047001.1,N
1518794515.4,286047000.3,N
1518794535.3,286047001.0,N
1518794555.1,286047000.7,N
1518794575.8,286047001.0,N
1518794595.7,286046998.1,N
1518794615.5,286047000.3,N
1518794635.4,286047000.7,N
1518794655.2,286047000.7,N
1518794675.0,286047000.9,N
1518794675.9,286047000.9,N
1518794695.8,286047002.4,Y
1518794715.6,286046998.2,P
1518794735.5,286046998.5,N
1518794755.3,286046998.3,N
1518794775.1,286046998.4,N
1518794795.9,286046998.4,N
1518794815.7,286046999.3,N
1518794835.5,286046999.2,N
1518794855.4,286046999.4,N
1518794875.2,286046998.7,N
1518794895.1,286046999.1,N
1518794896.0,286046999.1,N
1518794915.8,286046999.0,N
1518794935.6,286047000.9,N
1518794955.5,286046998.6,N
1518794975.3,286046998.1,N
1518794995.2,286047000.0,N
1518795015.9,286046999.8,N
1518795035.7,286047000.1,N
1518795055.6,286047000.0,N
1518795075.4,286047000.3,N
1518795095.3,286047000.6,N
1518795115.1,286047001.1,N
1518795116.0,286047001.1,N
1518795135.8,286047000.6,N
1518795155.7,286046998.1,N
1518795175.5,286047000.6,N
1518795195.3,286046999.9,N
1518795215.2,286047001.2,N
1518795235.0,286047001.0,N
1518795235.9,286047001.0,N
1518795255.8,286047002.8,N
1518795275.6,286047000.7,N
1518795295.4,286047000.6,N
1518795315.3,286046998.5,N
1518795335.1,286046999.4,N
1518795355.9,286046999.2,N
1518795375.7,286046996.7,Y
1518795395.5,286046998.1,P
1518795415.4,286046998.8,N
1518795435.2,286046999.5,N
1518795455.1,286046999.2,N
1518795456.0,286046999.2,N
1518795475.8,286046999.2,N
1518795495.6,286046999.6,N
1518795515.5,286046997.0,Y
1518795535.3,286046996.6,P
1518795555.2,286046997.8,N
1518795575.9,286046996.8,P
1518795595.7,286046997.2,N
1518795615.6,286046997.8,N
1518795635.4,286046997.7,N
1518795655.3,286046997.3,Y
1518795675.1,286047000.8,P
1518795676.0,286047000.8,N
1518795695.8,286047001.2,N
1518795715.7,286046999.3,N
1518795735.5,286046999.4,N
1518795755.3,286046999.6,N
1518795775.2,286046999.2,N
1518795795.0,286046996.7,Y
1518795795.9,286046996.7,P
1518795815.8,286046999.4,N
1518795835.6,286046999.2,N
1518795855.4,286046999.2,N
1518795875.3,286046999.4,N
1518795895.1,286046999.6,N
1518795915.9,286046997.3,N
1518795935.7,286046997.5,N
1518795955.5,286046999.6,N
1518795975.4,286046999.3,N
1518795995.2,286046996.7,Y
1518796015.0,286046998.2,P
1518796015.9,286046998.2,P
1518796035.8,286046998.7,P
1518796055.6,286046998.4,Y
1518796075.5,286046998.5,P
1518796095.3,286047001.1,P
1518796115.1,286047001.0,N
1518796135.9,286047000.7,N
1518796155.7,286047000.7,N
1518796175.5,286046998.5,N
1518796195.4,286046998.1,N
1518796215.2,286046999.4,N
1518796235.1,286046998.9,N
1518796236.0,286046998.9,N
1518796255.8,286046998.8,N
1518796275.6,286046999.5,N
1518796295.5,286046999.1,N
1518796315.3,286046999.4,N
1518796335.2,286046999.3,N
1518796355.9,286046999.3,N
1518796375.7,286046998.3,N
1518796395.6,286046998.3,N
1518796415.4,286046999.0,N
1518796435.3,286046998.5,N
1518796455.1,286046996.6,Y
1518796456.0,286046996.6,P
1518796475.8,286046999.3,N
1518796495.7,286046996.7,N
1518796515.5,286046996.5,N
1518796535.4,286046995.0,Y
1518796555.2,286046999.0,P
1518796575.0,286046998.8,N
1518796575.9,286046998.8,N
1518796595.8,286046999.3,N
1518796615.6,286046999.5,N
1518796635.5,286046998.6,N
1518796655.3,286046998.4,N
1518796675.1,286046996.8,Y
1518796695.9,286046998.2,P
1518796715.7,286046998.6,P
1518796735.5,286046998.7,P
1518796755.4,286046998.6,Y
1518796775.2,286047000.2,P
1518796795.1,286047002.8,P
1518796796.0,286047002.8,N
